Location: Sofia
(42.6977°N, 23.3219°E)
Time: 13:21:49
(UTC+03:00)

NOAA 15 - Pass Details

Date: 01 March 2024
Orbit: 795 x 811 km, 98.6° (Epoch: 12 April)

Event Time Altitude Azimuth Distance (km) Brightness Sun altitude
Rises 19:11:54 0° 165° (SSE) 3,303 7.6 -10.9°
Reaches altitude 10° 19:14:13 10° 165° (SSE) 2,379 6.9 -11.4°
Maximum altitude 19:19:30 89° 249° (WSW) 814 4.6 -12.3°
Drops below altitude 10° 19:24:50 10° 346° (NNW) 2,404 7.3 -13.3°
Sets 19:27:11 0° 347° (NNW) 3,341 8.0 -13.7°
